VU2COR-13 Weather Reports


time (UTC)temp
C
wind
direction
speed
KPH
gust
KPH
rain 1hr
cm
rain 24hr
cm
rain mn
cm
humidity
%
barometer
mb
20260508005722 30 0.0 0.0 0.00 0.00 0.00 56 979.3
20260508004722 30 0.0 0.0 0.00 0.00 0.00 55 979.2
20260508003722 30 0.0 0.0 0.00 0.00 0.00 57 979.2
20260508002722 30 0.0 0.0 0.00 0.00 0.00 58 979.2
20260508001722 30 0.0 0.0 0.00 0.00 0.00 57 979.1
20260508000722 29 0.0 0.0 0.00 0.00 0.00 60 979.0
20260507235722 30 0.0 0.0 0.00 0.00 0.00 56 978.9
20260507234722 30 0.0 0.0 0.00 0.00 0.00 57 978.9
20260507233722 30 0.0 0.0 0.00 0.00 0.00 58 978.8
20260507232722 30 0.0 0.0 0.00 0.00 0.00 58 978.7
20260507231721 30 0.0 0.0 0.00 0.00 0.00 58 978.7
20260507230722 30 0.0 0.0 0.00 0.00 0.00 62 978.7
20260507225722 29 0.0 0.0 0.00 0.00 0.00 64 978.6
20260507224722 29 0.0 0.0 0.00 0.00 0.00 65 978.6
20260507223722 29 0.0 0.0 0.00 0.00 0.00 62 978.6
20260507222722 30 0.0 0.0 0.00 0.00 0.00 60 978.7
20260507221722 31 0.0 0.0 0.00 0.00 0.00 55 978.7
20260507220722 30 0.0 0.0 0.00 0.00 0.00 56 978.8
20260507215722 31 0.0 0.0 0.00 0.00 0.00 56 978.9
20260507214721 30 0.0 0.0 0.00 0.00 0.00 57 978.8
20260507213721 30 0.0 0.0 0.00 0.00 0.00 59 978.7
20260507212722 31 0.0 0.0 0.00 0.00 0.00 55 978.6
20260507211722 31 0.0 0.0 0.00 0.00 0.00 55 978.6
20260507210721 30 0.0 0.0 0.00 0.00 0.00 58 978.6
20260507205721 30 0.0 0.0 0.00 0.00 0.00 56 978.7
20260507204721 31 0.0 0.0 0.00 0.00 0.00 55 978.7
20260507203721 30 0.0 0.0 0.00 0.00 0.00 56 978.7
20260507202721 31 0.0 0.0 0.00 0.00 0.00 54 978.7
20260507201721 31 0.0 0.0 0.00 0.00 0.00 53 978.7
20260507200721 31 0.0 0.0 0.00 0.00 0.00 52 978.8
20260507195722 30 0.0 0.0 0.00 0.00 0.00 54 978.8
20260507194721 31 0.0 0.0 0.00 0.00 0.00 49 978.7
20260507193721 31 0.0 0.0 0.00 0.00 0.00 52 978.8
20260507192722 31 0.0 0.0 0.00 0.00 0.00 50 978.8
20260507191721 31 0.0 0.0 0.00 0.00 0.00 50 978.9
20260507190721 31 0.0 0.0 0.00 0.00 0.00 50 979.0
20260507185721 31 0.0 0.0 0.00 0.00 0.00 50 979.1
20260507184721 31 0.0 0.0 0.00 0.00 0.00 48 979.2
20260507183721 31 0.0 0.0 0.00 0.00 0.00 48 979.2
20260507182721 31 0.0 0.0 0.00 0.00 0.00 47 979.3
20260507181722 32 0.0 0.0 0.00 0.00 0.00 45 979.3
20260507180721 32 0.0 0.0 0.00 0.00 0.00 44 979.2
20260507175721 31 0.0 0.0 0.00 0.00 0.00 44 979.2
20260507174721 31 0.0 0.0 0.00 0.00 0.00 44 979.3
20260507173722 32 0.0 0.0 0.00 0.00 0.00 43 979.3
20260507172721 32 0.0 0.0 0.00 0.00 0.00 43 979.3
20260507171721 32 0.0 0.0 0.00 0.00 0.00 42 979.3
20260507170721 32 0.0 0.0 0.00 0.00 0.00 42 979.3
20260507165722 32 0.0 0.0 0.00 0.00 0.00 42 979.3
20260507164721 32 0.0 0.0 0.00 0.00 0.00 42 979.4
20260507163722 32 0.0 0.0 0.00 0.00 0.00 42 979.4
20260507162722 32 0.0 0.0 0.00 0.00 0.00 42 979.3
20260507161721 33 0.0 0.0 0.00 0.00 0.00 42 979.4
20260507160721 32 0.0 0.0 0.00 0.00 0.00 42 979.4
20260507155721 32 0.0 0.0 0.00 0.00 0.00 42 979.3
20260507154722 33 0.0 0.0 0.00 0.00 0.00 41 979.2
20260507153721 33 0.0 0.0 0.00 0.00 0.00 41 979.3
20260507152722 33 0.0 0.0 0.00 0.00 0.00 41 979.2
20260507151721 33 0.0 0.0 0.00 0.00 0.00 41 979.0
20260507150721 33 0.0 0.0 0.00 0.00 0.00 42 978.8
20260507145721 34 0.0 0.0 0.00 0.00 0.00 41 978.7
20260507144721 34 0.0 0.0 0.00 0.00 0.00 40 978.6
20260507143721 35 0.0 0.0 0.00 0.00 0.00 40 978.4
20260507142721 35 0.0 0.0 0.00 0.00 0.00 39 978.3
20260507141721 35 0.0 0.0 0.00 0.00 0.00 38 978.2
20260507140721 35 0.0 0.0 0.00 0.00 0.00 38 978.1
20260507134721 35 0.0 0.0 0.00 0.00 0.00 38 977.8
20260507133721 36 0.0 0.0 0.00 0.00 0.00 37 977.9
20260507132721 35 0.0 0.0 0.00 0.00 0.00 37 977.8
20260507131721 36 0.0 0.0 0.00 0.00 0.00 35 977.7
20260507130721 36 0.0 0.0 0.00 0.00 0.00 35 977.5
20260507125721 36 0.0 0.0 0.00 0.00 0.00 35 977.4
20260507124721 37 0.0 0.0 0.00 0.00 0.00 34 977.4
20260507123721 37 0.0 0.0 0.00 0.00 0.00 34 977.4
20260507122722 37 0.0 0.0 0.00 0.00 0.00 34 977.3
20260507121721 37 0.0 0.0 0.00 0.00 0.00 34 977.2
20260507120721 37 0.0 0.0 0.00 0.00 0.00 34 977.2
20260507115721 37 0.0 0.0 0.00 0.00 0.00 33 977.2
20260507114722 37 0.0 0.0 0.00 0.00 0.00 33 977.2
20260507112721 37 0.0 0.0 0.00 0.00 0.00 34 977.2
20260507111721 37 0.0 0.0 0.00 0.00 0.00 34 977.2
20260507110721 37 0.0 0.0 0.00 0.00 0.00 34 977.3
20260507105721 37 0.0 0.0 0.00 0.00 0.00 33 977.3
20260507104721 37 0.0 0.0 0.00 0.00 0.00 33 977.3
20260507103721 37 0.0 0.0 0.00 0.00 0.00 33 977.5
20260507102721 37 0.0 0.0 0.00 0.00 0.00 33 977.4
20260507101721 36 0.0 0.0 0.00 0.00 0.00 34 977.5
20260507100721 37 0.0 0.0 0.00 0.00 0.00 34 977.6
20260507095721 37 0.0 0.0 0.00 0.00 0.00 34 977.7
20260507094721 37 0.0 0.0 0.00 0.00 0.00 34 977.8
20260507093721 37 0.0 0.0 0.00 0.00 0.00 34 978.0
20260507092721 37 0.0 0.0 0.00 0.00 0.00 34 978.1
20260507091721 36 0.0 0.0 0.00 0.00 0.00 35 978.2
20260507090722 36 0.0 0.0 0.00 0.00 0.00 34 978.3
20260507085721 36 0.0 0.0 0.00 0.00 0.00 35 978.4
20260507084721 36 0.0 0.0 0.00 0.00 0.00 35 978.4
20260507083721 36 0.0 0.0 0.00 0.00 0.00 36 978.5
20260507082721 36 0.0 0.0 0.00 0.00 0.00 35 978.6
20260507081721 36 0.0 0.0 0.00 0.00 0.00 35 978.6
20260507080721 36 0.0 0.0 0.00 0.00 0.00 34 978.8
20260507075721 35 0.0 0.0 0.00 0.00 0.00 35 978.8
20260507074722 36 0.0 0.0 0.00 0.00 0.00 34 978.9
20260507073721 35 0.0 0.0 0.00 0.00 0.00 34 979.0
20260507072721 35 0.0 0.0 0.00 0.00 0.00 34 979.1
20260507071721 35 0.0 0.0 0.00 0.00 0.00 34 979.1
20260507070721 35 0.0 0.0 0.00 0.00 0.00 34 979.0
20260507065721 35 0.0 0.0 0.00 0.00 0.00 35 979.1
20260507064721 35 0.0 0.0 0.00 0.00 0.00 35 979.1
20260507063721 35 0.0 0.0 0.00 0.00 0.00 35 979.2
20260507062721 35 0.0 0.0 0.00 0.00 0.00 34 979.2
20260507061721 35 0.0 0.0 0.00 0.00 0.00 35 979.2
20260507060721 35 0.0 0.0 0.00 0.00 0.00 35 979.2
20260507055721 35 0.0 0.0 0.00 0.00 0.00 35 979.3
20260507054721 34 0.0 0.0 0.00 0.00 0.00 35 979.4
20260507053721 34 0.0 0.0 0.00 0.00 0.00 35 979.3
20260507052721 34 0.0 0.0 0.00 0.00 0.00 36 979.3
20260507051721 34 0.0 0.0 0.00 0.00 0.00 36 979.2
20260507050721 33 0.0 0.0 0.00 0.00 0.00 37 979.3
20260507045721 33 0.0 0.0 0.00 0.00 0.00 37 979.2
20260507044721 33 0.0 0.0 0.00 0.00 0.00 37 979.1
20260507043721 33 0.0 0.0 0.00 0.00 0.00 36 979.0
20260507042721 32 0.0 0.0 0.00 0.00 0.00 36 979.0
20260507041720 32 0.0 0.0 0.00 0.00 0.00 37 978.9
20260507040721 32 0.0 0.0 0.00 0.00 0.00 38 978.9
20260507035721 32 0.0 0.0 0.00 0.00 0.00 38 978.9
20260507034721 32 0.0 0.0 0.00 0.00 0.00 39 978.8
20260507033721 31 0.0 0.0 0.00 0.00 0.00 40 978.7
20260507031721 31 0.0 0.0 0.00 0.00 0.00 41 978.6
20260507030721 30 0.0 0.0 0.00 0.00 0.00 42 978.6
20260507025721 31 0.0 0.0 0.00 0.00 0.00 43 978.6
20260507024721 30 0.0 0.0 0.00 0.00 0.00 43 978.5
20260507023721 30 0.0 0.0 0.00 0.00 0.00 43 978.4
20260507022721 30 0.0 0.0 0.00 0.00 0.00 43 978.3
20260507021721 30 0.0 0.0 0.00 0.00 0.00 42 978.1
20260507020721 31 0.0 0.0 0.00 0.00 0.00 42 978.1
20260507015720 31 0.0 0.0 0.00 0.00 0.00 41 978.0
20260507014720 30 0.0 0.0 0.00 0.00 0.00 42 977.9
20260507013720 31 0.0 0.0 0.00 0.00 0.00 42 977.8
20260507012720 30 0.0 0.0 0.00 0.00 0.00 41 977.6
20260507011721 30 0.0 0.0 0.00 0.00 0.00 41 977.5
20260507010720 30 0.0 0.0 0.00 0.00 0.00 41 977.3